Vorticity
12 7 5 9 13 15 11 5 6 9 6 3 3 4 5 4 -1 -4 -4 -2 -0 1 2 4 4 3 4 4 5 7 5 2 0 -0 1 3 5 8 11 11 10 9 7 5 4 4 4 5 5 5 5 5 5 6 7 9 10 9 9 8 7 7 6
4 0 2 10 15 13 9 4 2 3 2 -0 2 6 5 -1 -4 -3 -1 1 1 3 5 6 5 4 4 6 7 5 2 -1 0 2 4 6 8 9 10 10 10 8 7 5 4 4 5 6 5 5 5 5 6 7 8 10 10 10 9 8 7 6 5
14 5 -1 5 11 10 6 4 2 1 2 2 5 6 1 -3 -1 0 0 2 3 6 8 6 4 4 5 6 4 1 0 1 2 5 7 8 10 10 9 9 9 8 7 6 5 4 5 5 5 5 6 6 7 8 9 9 8 8 7 7 7 7 5
17 18 9 2 5 7 2 0 2 2 2 3 5 4 2 1 1 -1 0 5 7 8 6 4 5 5 4 2 0 1 2 3 3 6 9 10 10 10 9 9 9 8 7 6 5 5 4 4 5 5 7 8 9 9 9 8 7 6 6 5 5 6 5
8 15 13 5 6 8 4 2 4 4 4 5 5 3 1 -1 -2 1 7 9 8 7 6 6 5 3 0 1 2 3 3 4 6 9 11 10 9 9 9 9 8 7 7 6 6 5 4 4 5 7 9 10 10 10 9 8 7 7 5 4 4 4 4
9 10 9 8 9 8 5 5 5 3 3 3 1 -1 -2 0 5 9 10 8 7 6 4 3 2 1 2 3 4 4 5 8 10 11 11 9 9 9 9 8 7 6 7 6 6 6 5 6 7 9 11 11 9 8 8 7 7 6 4 3 3 4 4
12 10 9 9 9 7 5 5 5 4 3 2 2 3 6 10 11 9 6 4 4 3 1 2 2 4 5 5 6 7 9 11 11 11 11 10 9 9 7 7 7 6 6 6 6 7 8 9 10 10 10 9 8 7 6 6 5 4 4 3 3 5 5
9 9 8 7 7 6 6 6 6 6 8 8 10 11 11 9 4 1 2 2 2 2 3 5 5 5 6 6 9 11 11 11 10 10 10 8 7 7 6 5 5 5 6 6 8 10 10 10 11 10 8 7 6 5 5 5 4 3 4 4 4 5 6
8 8 8 7 8 8 8 9 11 12 14 13 12 8 3 0 -0 1 3 3 3 4 5 5 5 7 9 11 12 12 11 10 9 8 7 6 6 6 5 5 5 6 7 9 10 10 10 9 8 6 6 5 4 4 4 4 4 4 5 5 6 6 7
8 8 8 8 9 10 12 14 14 13 11 8 3 -1 -2 0 3 4 4 3 4 4 5 7 9 11 13 13 12 11 10 9 9 8 7 6 5 5 5 7 8 9 10 10 9 8 7 6 5 4 4 4 4 4 4 5 5 6 6 6 7 10 11
6 6 7 8 10 12 12 10 7 5 3 -0 -2 -2 1 4 5 4 3 3 4 6 8 11 12 12 12 11 10 10 9 9 8 8 8 7 7 8 8 9 9 9 9 8 7 6 5 4 3 3 4 4 5 5 5 6 7 7 8 9 11 13 13
7 8 8 9 10 10 6 3 1 1 -0 -1 -1 2 4 4 4 3 4 6 8 9 11 12 12 11 11 10 10 9 7 7 7 7 8 9 10 10 10 9 8 7 6 5 5 4 3 3 3 4 4 4 5 6 6 8 9 10 12 13 13 14 15
10 9 9 8 6 3 -0 0 1 0 1 1 2 3 3 3 3 6 8 10 10 11 11 11 11 10 10 9 8 7 7 7 7 8 8 9 9 8 7 7 6 5 5 4 4 3 3 3 4 5 5 5 6 8 9 11 13 14 16 15 15 18 20
6 4 4 2 -1 -2 -0 1 1 1 2 2 2 2 3 4 6 8 9 9 9 10 10 10 9 8 6 6 6 7 7 7 7 7 8 7 6 5 4 4 4 5 5 5 4 4 3 4 4 5 7 8 10 11 12 14 16 16 16 17 19 23 26
2 1 0 -1 -1 1 1 1 1 2 3 2 3 5 6 8 8 8 9 10 10 10 9 8 7 6 5 5 6 7 7 7 7 7 6 5 4 4 4 4 4 4 5 5 5 6 5 6 7 8 10 12 12 14 15 17 18 18 20 23 25 28 30
1 -0 -0 0 1 2 1 2 3 3 4 6 8 9 9 9 10 10 11 10 9 8 7 6 6 6 6 7 7 8 7 7 6 6 5 4 4 4 4 5 4 4 5 6 7 7 8 9 11 12 14 15 15 16 18 20 22 24 26 27 28 30 31
0 1 2 1 1 1 1 3 4 6 8 10 10 9 9 10 9 9 8 7 7 7 6 7 8 8 8 8 7 7 7 6 6 5 4 4 4 4 4 4 4 4 6 8 9 11 12 14 15 17 18 19 20 20 22 24 25 26 26 27 27 27 26
3 3 2 -0 -0 1 2 5 7 8 9 9 9 9 9 9 8 7 7 7 8 9 9 9 9 8 8 7 6 6 5 5 5 4 4 4 3 4 4 4 5 7 9 11 13 15 17 18 19 22 23 24 24 25 26 26 25 23 22 21 22 21 20
2 1 -0 -0 2 4 6 8 10 10 9 9 10 9 7 8 8 8 9 9 9 9 9 8 7 7 7 6 5 5 4 4 4 4 3 4 4 5 6 6 9 11 13 15 18 20 22 24 26 26 25 25 24 23 23 22 20 19 18 18 19 19 19
2 2 2 4 7 8 10 11 11 10 9 8 8 7 7 9 9 9 9 9 8 7 6 6 5 5 5 5 4 4 4 4 4 4 5 6 7 8 9 10 13 16 19 22 24 25 27 27 26 24 22 20 19 17 17 18 18 19 20 21 22 22 22
4 5 7 8 9 10 10 9 8 8 8 7 7 8 9 9 9 8 7 6 5 5 5 5 5 4 4 4 4 4 4 5 6 7 9 10 10 11 13 16 20 24 26 26 26 25 25 23 20 18 18 17 17 17 19 22 24 25 26 27 26 25 25
7 9 10 10 10 9 8 8 7 8 8 9 9 9 9 8 7 6 6 5 5 5 4 4 3 4 4 4 5 6 7 8 10 12 13 14 15 17 20 23 26 27 26 25 23 22 21 18 17 17 19 20 22 25 27 28 29 30 29 28 28 26 24
9 9 9 10 9 8 8 8 8 8 9 9 9 8 8 7 6 6 6 5 4 3 3 3 4 5 6 7 9 10 11 12 14 15 17 17 18 20 23 26 28 27 24 22 22 21 20 20 21 22 24 27 28 29 31 30 29 29 28 26 25 24 24
9 9 9 9 9 8 8 8 8 8 8 8 8 8 7 7 6 5 5 4 4 4 5 5 6 8 9 11 13 13 13 14 16 16 17 18 20 25 29 30 27 24 22 22 22 23 24 25 27 28 29 30 30 29 30 29 27 26 26 25 25 25 26
9 8 7 7 7 7 8 8 8 8 8 8 7 7 6 6 5 5 5 6 7 7 7 8 9 11 13 14 14 13 14 15 17 18 21 24 29 31 29 25 22 21 23 26 27 28 29 29 30 31 31 30 29 29 28 26 25 25 24 24 25 25 26
7 7 7 7 7 7 8 8 9 9 8 7 6 5 6 6 6 7 8 8 8 8 8 9 11 13 14 14 13 13 16 20 22 25 28 29 28 25 22 22 24 26 28 30 30 30 32 33 33 32 30 29 28 27 25 23 23 24 23 22 23 24 23
7 7 8 8 8 8 8 7 8 7 7 7 6 6 7 7 7 8 7 7 8 8 10 13 15 17 17 18 19 22 25 27 28 28 27 24 20 21 26 29 30 30 30 30 31 32 33 33 30 29 28 26 25 24 22 21 21 21 20 20 21 22 20
8 8 8 8 8 8 7 7 7 7 7 7 6 7 7 7 7 7 7 9 10 12 14 17 19 21 23 26 29 30 28 27 24 22 20 20 23 29 33 32 28 27 27 27 28 29 29 27 26 26 25 24 24 23 20 20 21 20 19 19 19 19 18
8 9 9 9 8 8 8 7 7 6 5 5 6 7 7 7 8 9 10 12 14 15 18 21 24 27 30 29 26 23 20 18 17 18 22 27 33 36 32 25 22 21 22 22 22 22 21 22 22 23 22 22 23 23 21 21 21 20 18 17 17 15 14
9 9 8 8 7 7 6 5 5 5 5 6 7 8 9 10 11 12 15 17 18 21 25 29 31 30 27 22 18 16 16 16 18 25 33 35 34 30 23 18 17 17 16 17 16 15 15 17 17 17 17 18 19 19 19 20 19 19 17 16 16 15 14
8 7 6 6 5 5 6 6 6 6 7 8 10 12 13 14 14 16 20 22 24 28 31 31 27 21 17 16 16 16 18 21 28 35 36 30 23 18 14 13 13 13 13 13 13 12 13 13 13 13 13 14 15 15 16 17 17 17 17 17 17 17 17
7 6 6 7 6 7 8 7 6 6 8 11 14 14 14 15 17 22 26 27 27 28 27 21 17 16 16 17 18 20 25 31 36 35 27 18 14 12 11 11 11 11 11 11 11 12 12 11 12 13 14 13 13 14 14 15 15 16 17 18 17 17 17
7 7 7 7 8 8 8 6 7 9 12 13 14 15 16 20 25 28 29 26 23 20 17 14 15 17 19 20 25 30 34 34 31 24 15 11 11 10 9 9 10 10 10 10 10 10 10 10 11 12 13 13 13 13 13 13 14 15 16 18 18 18 18
8 8 8 9 9 10 9 8 10 13 14 16 19 21 24 27 28 27 22 18 15 15 14 16 19 22 26 31 35 35 31 25 19 13 9 9 10 9 9 9 9 10 10 10 10 9 8 9 9 9 10 10 10 10 11 10 10 11 12 13 15 16 17
9 8 8 10 12 12 11 12 14 17 20 25 28 28 26 23 20 18 15 14 15 16 17 21 26 31 36 37 33 26 20 14 11 9 8 8 9 9 10 9 9 10 11 10 11 11 10 9 9 9 9 9 9 8 9 8 8 9 9 9 10 11 12
7 7 8 11 12 13 14 16 21 25 29 30 27 21 17 15 14 15 16 17 18 20 25 33 38 39 36 29 20 14 11 9 8 8 8 8 9 9 9 9 9 11 12 12 12 13 12 12 13 12 11 11 10 9 8 7 8 8 8 9 8 8 9
Height
5586 5585 5585 5585 5585 5585 5585 5584 5584 5583 5583 5582 5581 5580 5579 5578 5577 5576 5575 5573 5572 5571 5569 5568 5566 5565 5563 5561 5560 5558 5556 5555 5553 5551 5549 5547 5545 5542 5540 5539 5537 5536 5536 5533 5528 5525 5522 5519 5517 5515 5512 5510 5510 5508 5506 5504 5503 5501 5500 5499 5497 5495 5493
5578 5578 5578 5578 5578 5577 5577 5577 5577 5576 5575 5574 5573 5572 5571 5570 5569 5568 5567 5565 5564 5562 5561 5559 5558 5556 5554 5552 5550 5548 5546 5545 5542 5541 5539 5536 5534 5532 5529 5528 5526 5525 5524 5523 5519 5514 5511 5508 5505 5503 5499 5497 5496 5494 5492 5491 5489 5488 5486 5485 5483 5481 5480
5571 5571 5571 5571 5570 5570 5570 5570 5569 5569 5568 5567 5566 5565 5563 5562 5561 5560 5558 5557 5555 5554 5552 5551 5549 5546 5544 5542 5540 5539 5536 5535 5532 5530 5528 5526 5523 5522 5519 5517 5515 5513 5512 5511 5509 5504 5499 5496 5493 5491 5487 5484 5482 5481 5479 5478 5476 5475 5473 5471 5469 5467 5466
5563 5564 5564 5563 5563 5563 5562 5562 5561 5560 5559 5558 5557 5556 5555 5554 5553 5551 5550 5548 5546 5545 5543 5541 5539 5537 5535 5533 5531 5528 5526 5525 5522 5520 5518 5515 5512 5510 5508 5506 5503 5501 5499 5498 5497 5493 5488 5484 5481 5479 5475 5472 5470 5468 5466 5465 5464 5463 5461 5458 5455 5453 5452
5556 5556 5556 5556 5555 5555 5554 5553 5553 5552 5551 5550 5549 5548 5547 5546 5544 5543 5541 5539 5537 5536 5534 5532 5530 5528 5526 5523 5521 5518 5516 5514 5512 5510 5507 5504 5502 5499 5497 5494 5491 5488 5486 5484 5483 5481 5477 5472 5469 5466 5463 5459 5456 5455 5454 5452 5451 5450 5448 5445 5442 5440 5438
5548 5548 5548 5547 5547 5546 5546 5545 5544 5544 5543 5542 5541 5540 5539 5538 5536 5534 5532 5530 5529 5527 5525 5523 5521 5519 5516 5514 5511 5508 5506 5504 5502 5499 5497 5494 5491 5488 5485 5483 5479 5476 5474 5471 5470 5467 5464 5460 5457 5454 5451 5447 5443 5442 5440 5439 5438 5437 5434 5431 5429 5426 5423
5540 5540 5540 5539 5539 5538 5538 5537 5537 5536 5535 5535 5534 5533 5531 5529 5527 5526 5523 5521 5520 5517 5515 5513 5511 5509 5506 5503 5501 5498 5495 5493 5491 5488 5486 5482 5480 5477 5474 5470 5467 5464 5461 5458 5456 5454 5451 5448 5444 5441 5437 5434 5430 5428 5426 5424 5424 5423 5420 5416 5414 5412 5408
5532 5532 5532 5532 5531 5531 5530 5529 5529 5528 5528 5527 5526 5524 5522 5520 5518 5516 5514 5512 5510 5508 5505 5503 5500 5498 5495 5492 5489 5486 5484 5481 5479 5477 5474 5471 5468 5465 5462 5458 5455 5452 5449 5446 5444 5441 5438 5435 5432 5428 5424 5421 5417 5414 5412 5409 5408 5408 5405 5401 5399 5397 5392
5525 5525 5524 5524 5524 5523 5523 5522 5521 5521 5520 5519 5517 5515 5513 5511 5509 5507 5505 5503 5500 5498 5495 5492 5490 5487 5484 5481 5478 5475 5472 5470 5467 5465 5462 5459 5456 5452 5449 5446 5442 5439 5436 5433 5431 5429 5426 5422 5419 5414 5409 5407 5404 5400 5397 5395 5392 5391 5389 5386 5384 5381 5376
5518 5517 5517 5517 5517 5516 5515 5514 5513 5513 5512 5510 5509 5507 5505 5503 5501 5498 5496 5493 5490 5487 5485 5482 5479 5476 5473 5470 5467 5464 5461 5458 5455 5452 5449 5446 5443 5439 5435 5432 5429 5426 5422 5420 5418 5416 5412 5409 5405 5399 5394 5391 5389 5385 5382 5380 5378 5375 5373 5370 5367 5366 5361
5511 5510 5510 5510 5509 5508 5507 5507 5506 5505 5503 5502 5501 5499 5496 5494 5491 5488 5486 5483 5480 5476 5474 5471 5468 5465 5462 5458 5456 5453 5450 5447 5444 5441 5437 5434 5430 5426 5422 5419 5415 5412 5409 5406 5404 5403 5399 5394 5389 5385 5379 5375 5373 5369 5367 5365 5362 5358 5356 5353 5350 5349 5346
5504 5503 5503 5502 5502 5501 5500 5499 5498 5496 5495 5494 5492 5490 5487 5484 5481 5478 5475 5472 5469 5466 5463 5460 5457 5454 5451 5447 5445 5442 5439 5436 5433 5429 5425 5422 5418 5413 5409 5405 5401 5398 5394 5391 5389 5388 5384 5378 5373 5370 5365 5359 5356 5353 5351 5348 5345 5341 5338 5336 5333 5331 5330
5497 5496 5495 5495 5494 5493 5492 5491 5489 5488 5486 5485 5483 5480 5477 5473 5470 5467 5463 5460 5458 5455 5452 5449 5446 5443 5440 5436 5433 5430 5426 5423 5420 5416 5413 5409 5405 5401 5397 5392 5388 5383 5379 5376 5373 5371 5369 5363 5356 5354 5350 5344 5339 5337 5335 5332 5329 5325 5320 5318 5316 5314 5312
5490 5489 5488 5487 5486 5485 5484 5482 5481 5479 5477 5474 5472 5469 5465 5462 5459 5456 5453 5449 5447 5444 5441 5438 5435 5431 5428 5424 5420 5417 5414 5411 5408 5404 5401 5396 5392 5388 5384 5379 5374 5368 5363 5361 5358 5355 5353 5348 5341 5337 5334 5329 5323 5320 5318 5315 5312 5308 5303 5300 5299 5297 5295
5483 5482 5481 5480 5479 5478 5476 5474 5472 5470 5467 5464 5461 5458 5455 5452 5449 5446 5442 5439 5436 5433 5430 5426 5423 5420 5416 5412 5408 5404 5401 5398 5394 5391 5387 5383 5378 5374 5370 5365 5359 5353 5348 5345 5342 5339 5336 5332 5327 5322 5318 5313 5307 5303 5301 5298 5294 5291 5287 5284 5283 5282 5279
5476 5475 5474 5472 5471 5469 5468 5466 5463 5460 5457 5454 5452 5449 5446 5443 5440 5437 5433 5429 5426 5422 5419 5415 5411 5407 5404 5400 5395 5391 5387 5384 5381 5378 5374 5369 5365 5360 5355 5350 5344 5339 5334 5329 5326 5323 5320 5316 5311 5306 5301 5297 5291 5288 5285 5281 5278 5275 5270 5268 5268 5267 5265
5469 5468 5466 5464 5462 5460 5458 5456 5453 5450 5447 5445 5442 5440 5437 5434 5430 5426 5423 5419 5415 5411 5407 5402 5398 5395 5391 5388 5383 5379 5375 5371 5367 5364 5360 5355 5351 5346 5341 5335 5329 5325 5321 5315 5310 5307 5304 5301 5296 5290 5285 5280 5275 5272 5269 5265 5263 5260 5255 5253 5253 5253 5252
5461 5460 5458 5456 5454 5451 5448 5446 5443 5440 5437 5434 5432 5429 5426 5423 5420 5416 5412 5408 5404 5399 5395 5391 5387 5383 5379 5376 5372 5367 5362 5357 5353 5350 5346 5341 5337 5333 5326 5320 5315 5312 5308 5302 5296 5292 5288 5284 5281 5275 5270 5264 5259 5255 5252 5249 5248 5245 5241 5239 5239 5238 5238
5454 5452 5449 5447 5444 5441 5438 5435 5432 5430 5426 5423 5421 5419 5416 5412 5409 5405 5401 5397 5392 5388 5384 5379 5375 5371 5366 5362 5358 5353 5348 5343 5339 5336 5332 5327 5323 5319 5313 5307 5303 5299 5294 5289 5284 5278 5272 5267 5264 5259 5254 5249 5244 5240 5237 5234 5233 5231 5229 5227 5227 5224 5223
5445 5442 5440 5437 5434 5431 5428 5424 5421 5419 5416 5413 5411 5408 5405 5401 5397 5393 5389 5385 5381 5376 5372 5367 5363 5358 5354 5349 5344 5339 5334 5329 5325 5322 5319 5314 5309 5304 5300 5295 5291 5286 5281 5276 5270 5265 5259 5252 5246 5242 5239 5235 5230 5225 5223 5221 5219 5218 5216 5214 5214 5212 5210
5435 5432 5429 5426 5423 5420 5417 5414 5411 5408 5406 5403 5400 5397 5394 5390 5386 5381 5377 5373 5369 5363 5359 5355 5350 5346 5341 5336 5332 5326 5321 5317 5312 5308 5304 5300 5295 5290 5286 5281 5277 5273 5267 5261 5256 5250 5245 5239 5232 5226 5223 5220 5217 5213 5210 5208 5207 5205 5203 5201 5201 5200 5199
5425 5422 5419 5416 5413 5410 5407 5404 5401 5398 5395 5393 5390 5387 5383 5379 5374 5369 5365 5361 5357 5352 5347 5343 5338 5333 5328 5323 5318 5314 5309 5305 5300 5295 5290 5285 5280 5276 5272 5267 5263 5258 5252 5247 5242 5236 5231 5225 5219 5214 5209 5206 5204 5201 5198 5196 5194 5193 5191 5190 5189 5189 5189
5415 5412 5409 5406 5403 5400 5398 5395 5391 5388 5385 5382 5379 5375 5371 5367 5362 5357 5353 5349 5345 5341 5336 5331 5326 5321 5316 5311 5306 5301 5297 5292 5287 5281 5276 5270 5265 5261 5257 5253 5248 5243 5238 5234 5229 5224 5218 5213 5207 5202 5198 5194 5191 5189 5187 5185 5183 5182 5181 5180 5179 5178 5179
5406 5403 5399 5396 5393 5390 5387 5384 5381 5377 5374 5371 5368 5364 5359 5355 5351 5345 5341 5337 5333 5329 5324 5320 5315 5309 5304 5298 5293 5287 5283 5279 5273 5267 5261 5257 5252 5248 5244 5240 5235 5230 5226 5222 5217 5212 5206 5201 5195 5191 5187 5184 5181 5179 5177 5175 5173 5172 5171 5171 5171 5170 5170
5396 5393 5390 5387 5383 5380 5376 5373 5370 5367 5363 5360 5357 5353 5348 5344 5339 5333 5329 5325 5321 5316 5312 5308 5303 5297 5291 5285 5279 5273 5269 5265 5260 5254 5249 5245 5241 5237 5233 5228 5223 5218 5214 5209 5205 5200 5194 5190 5185 5180 5177 5174 5171 5170 5168 5166 5165 5164 5163 5163 5163 5163 5162
5386 5383 5380 5377 5374 5370 5366 5363 5359 5355 5353 5350 5346 5341 5337 5332 5327 5322 5317 5313 5308 5303 5298 5294 5289 5283 5277 5271 5265 5260 5256 5252 5248 5243 5239 5235 5230 5226 5221 5216 5211 5207 5202 5198 5194 5189 5185 5180 5176 5172 5168 5166 5163 5161 5159 5158 5158 5157 5157 5156 5156 5157 5156
5376 5373 5371 5368 5365 5361 5357 5353 5348 5344 5342 5339 5335 5330 5325 5321 5315 5309 5304 5299 5294 5289 5284 5280 5275 5269 5263 5257 5251 5247 5243 5239 5235 5232 5229 5225 5221 5216 5210 5205 5200 5197 5193 5188 5184 5180 5176 5172 5168 5164 5161 5159 5157 5155 5153 5153 5152 5152 5151 5150 5150 5151 5150
5367 5364 5361 5359 5355 5351 5348 5343 5337 5332 5330 5327 5322 5317 5312 5307 5301 5296 5291 5286 5281 5276 5272 5268 5263 5257 5251 5244 5238 5234 5229 5225 5222 5220 5218 5215 5211 5206 5201 5195 5191 5188 5184 5180 5176 5173 5169 5165 5161 5158 5155 5153 5151 5150 5148 5148 5148 5147 5146 5145 5145 5146 5145
5357 5353 5351 5348 5344 5340 5337 5332 5326 5320 5317 5313 5308 5303 5298 5293 5287 5283 5279 5274 5269 5264 5261 5257 5251 5245 5240 5234 5229 5224 5218 5214 5212 5210 5207 5204 5200 5197 5194 5189 5184 5181 5177 5174 5170 5166 5163 5160 5156 5153 5151 5149 5147 5146 5144 5144 5143 5142 5142 5141 5141 5141 5140
5347 5343 5339 5337 5333 5328 5324 5319 5314 5308 5304 5300 5295 5289 5283 5278 5274 5270 5266 5261 5256 5252 5249 5244 5239 5234 5229 5223 5218 5215 5210 5205 5203 5200 5197 5194 5191 5188 5186 5182 5179 5175 5171 5168 5165 5161 5159 5156 5153 5150 5148 5146 5144 5142 5141 5140 5139 5138 5137 5137 5136 5136 5135
5336 5332 5327 5324 5321 5316 5311 5306 5300 5296 5291 5286 5280 5274 5269 5264 5260 5257 5253 5248 5242 5239 5236 5231 5227 5223 5218 5212 5208 5204 5200 5196 5194 5191 5188 5185 5183 5180 5178 5176 5173 5170 5166 5163 5160 5157 5155 5152 5150 5147 5145 5143 5141 5139 5137 5136 5135 5134 5133 5133 5132 5131 5130
5324 5319 5315 5310 5306 5302 5298 5293 5287 5282 5277 5272 5266 5260 5255 5251 5248 5246 5241 5234 5229 5227 5224 5219 5216 5212 5207 5201 5197 5194 5190 5187 5185 5182 5180 5178 5176 5174 5172 5170 5168 5165 5162 5159 5157 5154 5151 5149 5146 5144 5142 5140 5138 5136 5134 5133 5132 5130 5130 5129 5128 5127 5126
5310 5305 5300 5296 5291 5286 5282 5278 5273 5268 5263 5258 5252 5246 5242 5240 5238 5234 5228 5222 5218 5215 5212 5208 5205 5201 5196 5191 5187 5184 5181 5179 5177 5175 5174 5172 5170 5168 5166 5164 5162 5160 5157 5155 5153 5150 5148 5145 5143 5141 5139 5136 5135 5133 5131 5129 5128 5127 5126 5125 5124 5123 5122
5296 5290 5285 5281 5276 5271 5266 5263 5259 5255 5250 5245 5240 5234 5231 5229 5228 5224 5218 5212 5207 5204 5201 5198 5195 5190 5185 5181 5178 5176 5174 5172 5171 5169 5167 5166 5164 5162 5160 5158 5157 5155 5152 5150 5148 5146 5143 5141 5139 5137 5135 5133 5131 5130 5128 5126 5125 5124 5123 5122 5121 5120 5119
5285 5278 5272 5267 5263 5257 5253 5251 5247 5243 5239 5234 5228 5223 5220 5219 5217 5214 5208 5202 5197 5192 5190 5187 5184 5181 5176 5173 5171 5169 5168 5166 5165 5163 5162 5160 5158 5157 5155 5153 5151 5149 5147 5145 5143 5141 5139 5137 5135 5133 5131 5129 5128 5126 5124 5122 5121 5120 5119 5118 5117 5116 5115
5275 5268 5262 5256 5250 5244 5241 5239 5236 5232 5228 5223 5217 5212 5210 5208 5206 5202 5198 5193 5187 5183 5180 5177 5174 5172 5169 5167 5165 5164 5163 5161 5159 5157 5156 5154 5153 5151 5149 5147 5145 5143 5141 5139 5138 5136 5133 5132 5130 5128 5127 5125 5124 5122 5120 5118 5117 5116 5115 5114 5113 5112 5111